Arctic Village, AK

4:43 PM AKDT on May 25, 2017 (GMT -0800)
Arctic Village

Weather History for PARC - September, 2013

Change the Weather History Date:

Sunday, September 1, 2013

  Actual Average Record
Temperature  
Mean Temperature 34 °F -  
Max Temperature 46 °F 53 °F 70 °F (1990)
Min Temperature 21 °F 29 °F 21 °F (2013)
Degree Days  
Heating Degree Days 32    
Moisture  
Dew Point 19 °F    
Average Humidity 56    
Maximum Humidity 100    
Minimum Humidity 34    
Precipitation  
Precipitation 0.00 in - - ()
Sea Level Pressure  
Sea Level Pressure 29.89 in    
Wind  
Wind Speed 3 mph (ENE)    
Max Wind Speed 9 mph    
Max Gust Speed -    
Visibility 10 miles    
Events      
Averages and records for this station are not official NWS values.
T = Trace of Precipitation, MM = Missing Value Source: NWS Daily Summary

Daily Weather History Graph

Daily Weather History Graph

Search for Another Location

Airport or City:

Trip Planner

Search our weather history database for the weather conditions in past years. The results will help you decide how hot, cold, wet, or windy it might be!

Date:

Astronomy

Sep. 01, 2013 Rise Set
Actual Time 6:09 AM AKDT 9:12 PM AKDT
Civil Twilight 5:03 AM AKDT 10:16 PM AKDT
Nautical Twilight 3:15 AM AKDT 12:01 AM AKDT
Astronomical Twilight Sun does not set Sun does not set
Moon 1:20 AM AKDT (9/1) 7:52 PM AKDT (9/1)
Length of Visible Light 17h 13m
Length of Day
15h 02m
Waning Crescent, 13% of the Moon is Illuminated
Sep 1
Waning Crescent
Sep 5
New
Sep 12
First Quarter
Sep 19
Full
Sep 26
Last Quarter

Hourly Weather History & Observations

Time (AKDT) Temp. Windchill Dew Point Humidity Pressure Visibility Wind Dir Wind Speed Gust Speed Precip Events Conditions
12:16 AM 28.4 °F 20.4 °F 14.0 °F 55% 29.91 in 10.0 mi NNE 8.1 mph - N/A   Clear
12:36 AM 26.6 °F 19.1 °F 15.8 °F 64% 29.91 in 10.0 mi NNE 6.9 mph - N/A   Clear
12:56 AM 26.6 °F 21.2 °F 15.8 °F 64% 29.91 in 10.0 mi West 4.6 mph - N/A   Clear
1:16 AM 28.4 °F 23.3 °F 17.6 °F 64% 29.91 in 10.0 mi West 4.6 mph - N/A   Clear
1:36 AM 26.6 °F - 17.6 °F 69% 29.91 in 10.0 mi Calm Calm - N/A   Clear
1:56 AM 28.4 °F - 21.2 °F 74% 29.92 in 10.0 mi Calm Calm - N/A   Clear
2:16 AM 26.6 °F 21.2 °F 17.6 °F 69% 29.91 in 10.0 mi West 4.6 mph - N/A   Clear
2:36 AM 26.6 °F - 19.4 °F 74% 29.92 in 10.0 mi Calm Calm - N/A   Clear
2:56 AM 26.6 °F 22.6 °F 17.6 °F 69% 29.92 in 10.0 mi SSW 3.5 mph - N/A   Clear
3:16 AM 24.8 °F 20.5 °F 19.4 °F 80% 29.92 in 10.0 mi West 3.5 mph - N/A   Clear
3:36 AM 24.8 °F - 17.6 °F 74% 29.92 in 10.0 mi Calm Calm - N/A   Clear
3:56 AM 24.8 °F - 14.0 °F 64% 29.91 in 10.0 mi Calm Calm - N/A   Clear
4:16 AM 24.8 °F - 15.8 °F 69% 29.91 in 10.0 mi Calm Calm - N/A   Clear
4:36 AM 24.8 °F - 15.8 °F 69% 29.91 in 10.0 mi Calm Calm - N/A   Clear
4:56 AM 21.2 °F 16.4 °F 19.4 °F 93% 29.91 in 10.0 mi West 3.5 mph - N/A   Clear
5:16 AM 24.8 °F 20.5 °F 21.2 °F 86% 29.91 in 10.0 mi West 3.5 mph - N/A   Clear
5:36 AM 24.8 °F - 23.0 °F 93% 29.91 in 10.0 mi Calm Calm - N/A   Clear
5:56 AM 23.0 °F 18.4 °F 23.0 °F 100% 29.91 in 10.0 mi SW 3.5 mph - N/A   Clear
6:16 AM 23.0 °F 17.0 °F 19.4 °F 86% 29.91 in 10.0 mi SSW 4.6 mph - N/A   Clear
6:36 AM 21.2 °F - 19.4 °F 93% 29.91 in 10.0 mi Calm Calm - N/A   Clear
6:56 AM 21.2 °F - 19.4 °F 93% 29.91 in 10.0 mi Calm Calm - N/A   Clear
7:16 AM 23.0 °F - 19.4 °F 86% 29.91 in 10.0 mi Calm Calm - N/A   Clear
7:36 AM 24.8 °F - 21.2 °F 86% 29.92 in 10.0 mi Calm Calm - N/A   Clear
7:56 AM 26.6 °F - 21.2 °F 80% 29.92 in 10.0 mi Calm Calm - N/A   Clear
8:16 AM 26.6 °F - 19.4 °F 74% 29.91 in 10.0 mi Calm Calm - N/A   Clear
8:36 AM 28.4 °F - 17.6 °F 64% 29.91 in 10.0 mi Calm Calm - N/A   Clear
8:56 AM 28.4 °F - 17.6 °F 64% 29.91 in 10.0 mi Calm Calm - N/A   Clear
9:16 AM 30.2 °F - 19.4 °F 64% 29.91 in 10.0 mi Calm Calm - N/A   Clear
9:36 AM 32.0 °F - 19.4 °F 60% 29.91 in 10.0 mi Calm Calm - N/A   Clear
9:56 AM 33.8 °F 30.8 °F 19.4 °F 56% 29.91 in 10.0 mi ESE 3.5 mph - N/A   Clear
10:16 AM 33.8 °F 30.8 °F 19.4 °F 56% 29.90 in 10.0 mi East 3.5 mph - N/A   Clear
10:36 AM 33.8 °F - 19.4 °F 56% 29.90 in 10.0 mi Calm Calm - N/A   Clear
10:56 AM 35.6 °F - 19.4 °F 52% 29.90 in 10.0 mi Calm Calm - N/A   Clear
11:16 AM 37.4 °F - 19.4 °F 48% 29.90 in 10.0 mi Calm Calm - N/A   Clear
11:36 AM 37.4 °F - 19.4 °F 48% 29.90 in 10.0 mi Calm Calm - N/A   Clear
11:56 AM 37.4 °F 34.9 °F 19.4 °F 48% 29.90 in 10.0 mi East 3.5 mph - N/A   Clear
12:16 PM 39.2 °F - 17.6 °F 42% 29.90 in 10.0 mi Calm Calm - N/A   Clear
12:36 PM 39.2 °F - 19.4 °F 45% 29.90 in 10.0 mi Calm Calm - N/A   Clear
12:56 PM 41.0 °F - 17.6 °F 39% 29.90 in 10.0 mi Calm Calm - N/A   Clear
1:16 PM 42.8 °F - 19.4 °F 39% 29.90 in 10.0 mi Calm Calm - N/A   Clear
1:36 PM 42.8 °F - 19.4 °F 39% 29.89 in 10.0 mi Calm Calm - N/A   Clear
1:56 PM 44.6 °F - 19.4 °F 37% 29.89 in 10.0 mi Calm Calm - N/A   Clear
2:16 PM 42.8 °F - 19.4 °F 39% 29.89 in 10.0 mi Calm Calm - N/A   Clear
2:36 PM 44.6 °F 43.1 °F 19.4 °F 37% 29.88 in 10.0 mi North 3.5 mph - N/A   Clear
2:56 PM 44.6 °F 43.1 °F 19.4 °F 37% 29.88 in 10.0 mi ENE 3.5 mph - N/A   Clear
3:16 PM 44.6 °F 41.4 °F 19.4 °F 37% 29.88 in 10.0 mi NE 5.8 mph - N/A   Clear
3:36 PM 44.6 °F 40.7 °F 19.4 °F 37% 29.88 in 10.0 mi NE 6.9 mph - N/A   Clear
3:56 PM 44.6 °F 42.2 °F 19.4 °F 37% 29.87 in 10.0 mi SE 4.6 mph - N/A   Clear
4:16 PM 44.6 °F - 19.4 °F 37% 29.87 in 10.0 mi Calm Calm - N/A   Clear
4:36 PM 46.4 °F 45.2 °F 19.4 °F 34% 29.87 in 10.0 mi North 3.5 mph - N/A   Clear
4:56 PM 44.6 °F - 19.4 °F 37% 29.87 in 10.0 mi Calm Calm - N/A   Clear
5:16 PM 44.6 °F 43.1 °F 19.4 °F 37% 29.86 in 10.0 mi East 3.5 mph - N/A   Clear
5:36 PM 44.6 °F 42.2 °F 17.6 °F 34% 29.86 in 10.0 mi East 4.6 mph - N/A   Clear
5:56 PM 44.6 °F 42.2 °F 17.6 °F 34% 29.86 in 10.0 mi East 4.6 mph - N/A   Clear
6:16 PM 44.6 °F 40.7 °F 19.4 °F 37% 29.86 in 10.0 mi ESE 6.9 mph - N/A   Clear
6:36 PM 44.6 °F 42.2 °F 17.6 °F 34% 29.85 in 10.0 mi ESE 4.6 mph - N/A   Clear
6:56 PM 44.6 °F 40.2 °F 17.6 °F 34% 29.85 in 10.0 mi ESE 8.1 mph - N/A   Clear
7:16 PM 44.6 °F 39.7 °F 19.4 °F 37% 29.85 in 10.0 mi ESE 9.2 mph - N/A   Clear
7:36 PM 44.6 °F 40.2 °F 19.4 °F 37% 29.85 in 10.0 mi ESE 8.1 mph - N/A   Clear
7:56 PM 42.8 °F 38.6 °F 17.6 °F 36% 29.84 in 10.0 mi East 6.9 mph - N/A   Clear
8:16 PM 42.8 °F 38.0 °F 19.4 °F 39% 29.84 in 10.0 mi SE 8.1 mph - N/A   Clear
8:36 PM 41.0 °F 37.1 °F 19.4 °F 42% 29.84 in 10.0 mi SE 5.8 mph - N/A   Clear
8:56 PM 39.2 °F - 17.6 °F 42% 29.85 in 10.0 mi Calm Calm - N/A   Clear
9:16 PM 37.4 °F 33.8 °F 15.8 °F 41% 29.85 in 10.0 mi NNE 4.6 mph - N/A   Clear
9:36 PM 35.6 °F 29.9 °F 19.4 °F 52% 29.85 in 10.0 mi NNE 6.9 mph - N/A   Clear
9:56 PM 35.6 °F 29.9 °F 17.6 °F 48% 29.84 in 10.0 mi North 6.9 mph - N/A   Clear
10:16 PM 35.6 °F 29.2 °F 17.6 °F 48% 29.84 in 10.0 mi North 8.1 mph - N/A   Clear
10:36 PM 33.8 °F 27.7 °F 17.6 °F 52% 29.84 in 10.0 mi North 6.9 mph - N/A   Clear
10:56 PM 33.8 °F 27.0 °F 15.8 °F 48% 29.84 in 10.0 mi NNE 8.1 mph - N/A   Clear
11:16 PM 35.6 °F 30.7 °F 17.6 °F 48% 29.84 in 10.0 mi NE 5.8 mph - N/A   Clear
11:36 PM 35.6 °F 29.9 °F 17.6 °F 48% 29.84 in 10.0 mi NNE 6.9 mph - N/A   Clear
11:56 PM 33.8 °F 27.7 °F 17.6 °F 52% 29.83 in 10.0 mi NNW 6.9 mph - N/A   Clear